Regional Weather Roundup
Issued by NWS

Home | Current Version | Previous Version | Text Only | Print | Product List | Glossary On
Versions: 1 2 3 4 5 6 7 8 9 10 11 12 13 14 15 16 17 18 19 20 21 22 23 24 25 26 27 28 29 30 31 32 33 34 35 36 37 38 39 40 41 42 43 44 45 46 47 48 49 50
000
ASUS44 KOUN 020610
RWROK

WEATHER ROUNDUP FOR OKLAHOMA
NATIONAL WEATHER SERVICE NORMAN OK
100 AM CDT SAT AUG 02 2014

NOTE: "FAIR" INDICATES FEW OR NO CLOUDS BELOW 12,000 FEET WITH NO
      SIGNIFICANT WEATHER AND/OR OBSTRUCTIONS TO VISIBILITY.

OKZ001>007-009>012-014-015-017-020700-
NORTHWEST OKLAHOMA AND THE PANHANDLE

CITY           SKY/WX    TMP DP  RH WIND       PRES   REMARKS
GAGE           CLEAR     67  63  87 S5        30.12S
6HR MIN TEMP:  66; 6HR MAX TEMP:  87;

ENID/WOODRING  PTCLDY    66  64  94 CALM      30.07R
$$

OKZ016-021>023-033>039-044-045-020700-
SOUTHWEST OKLAHOMA

CITY           SKY/WX    TMP DP  RH WIND       PRES   REMARKS
LAWTON/REGL    CLEAR     68  64  87 CALM      30.10R
6HR MIN TEMP:  68; 6HR MAX TEMP:  86;

LAWTON/FT SILL CLEAR     69  65  87 S3        30.09S
FREDERICK      CLEAR     70  67  90 SE5       30.08R
CLINTON        CLEAR     71  64  78 S7        30.13S
HOBART         CLEAR     69  65  86 S9        30.12R
ALTUS AFB      CLEAR     67  67 100 S2        30.11R
$$

OKZ018>020-024>031-020700-
CENTRAL OKLAHOMA

CITY           SKY/WX    TMP DP  RH WIND       PRES   REMARKS
OKLAHOMA CITY  PTCLDY    68  64  87 S5        30.09S
6HR MIN TEMP:  68; 6HR MAX TEMP:  82;

OKC/WILEY POST CLEAR     70  65  84 S6        30.09R
OKC/TINKER AFB CLEAR     68  65  91 S6        30.09S
STILLWATER     CLEAR     69  64  84 S5        30.07S
GUTHRIE        CLEAR     70  66  87 S5        30.08R
$$

OKZ008-013-054>072-020700-
NORTHEAST OKLAHOMA

CITY           SKY/WX    TMP DP  RH WIND       PRES   REMARKS
TULSA          CLEAR     70  65  84 CALM      30.05S
6HR MIN TEMP:  69; 6HR MAX TEMP:  82;

TULSA/JONES    CLEAR     66  66 100 CALM      30.07S
PONCA CITY     PTCLDY    72  65  78 S3        30.07R
BARTLESVILLE   PTCLDY    64  63  96 CALM      30.08S FOG
MUSKOGEE       CLEAR     67  66  97 SE5       30.08S
$$

OKZ032-040>043-046>053-073>077-020700-
SOUTH CENTRAL/SOUTHEAST OKLAHOMA

CITY           SKY/WX    TMP DP  RH WIND       PRES   REMARKS
ARDMORE/DWNTWN CLEAR     66  64  94 CALM      30.08S
MCALESTER      CLEAR     66  65  96 CALM      30.09R FOG
$$




USA.gov is the U.S. government's official web portal to all federal, state and local government web resources and services.